Simultaneous Nadir Overpasses (SNOs) Predictions

Prediction of SNOs between GOES-16 and METOP-B Satellite Orbit:

Table of predicted SNOs for the next 14.0 days since TLE Epoch: 11/4/2023
Index Date Time (GOES-16) GOES-16 Lat,Lon METOP-B Lat,Lon Distance(km) Time Diff (sec)
1 11/04/2023 14:42:50 -0.05, -75.22 0.82, -78.99 429.93 80
2 11/05/2023 14:24:51 -0.05, -75.23 -0.32, -74.00 139.61 80
3 11/07/2023 02:43:50 0.04, -75.21 -0.73, -78.60 386.54 80
4 11/08/2023 02:20:31 0.04, -75.22 0.41, -73.61 183.44 80
5 11/09/2023 14:42:02 -0.04, -75.26 0.58, -78.18 331.64 80
6 11/10/2023 14:18:42 -0.04, -75.28 -0.50, -73.18 238.75 80
7 11/12/2023 02:40:21 0.04, -75.27 -0.52, -77.78 286.26 80
8 11/13/2023 02:17:00 0.04, -75.28 0.57, -72.78 284.25 80
9 11/14/2023 14:35:52 -0.03, -75.33 0.42, -77.35 230.33 80
10 11/15/2023 14:17:51 -0.03, -75.34 -0.68, -72.35 340.30 80
11 11/17/2023 02:36:51 0.02, -75.33 -0.33, -76.95 184.38 80
12 11/18/2023 02:13:30 0.02, -75.35 0.77, -71.96 386.36 80
